Middlesboro, KY

10:35 AM EDT on March 29, 2017 (GMT -0400)
Middlesboro

Weather History for K1A6 - May, 2014

Change the Weather History Date:

Monday, May 5, 2014

  Actual Average (KLOZ) Record (KLOZ)
Temperature  
Mean Temperature 52 °F -  
Max Temperature 54 °F 72 °F 90 °F (1959)
Min Temperature 50 °F 46 °F 33 °F (1957)
Degree Days  
Heating Degree Days 13    
Growing Degree Days 2 (Base 50)    
Moisture  
Dew Point 50 °F    
Average Humidity 93    
Maximum Humidity 96    
Minimum Humidity 86    
Precipitation  
Precipitation 0.00 in - - ()
Sea Level Pressure  
Sea Level Pressure 29.93 in    
Wind  
Wind Speed 2 mph (SW)    
Max Wind Speed 13 mph    
Max Gust Speed 24 mph    
Visibility 10 miles    
Events      
Averages and records for this station are not official NWS values.
T = Trace of Precipitation, MM = Missing Value Source: NWS Daily Summary

Daily Weather History Graph

Daily Weather History Graph

Search for Another Location

Airport or City:

Trip Planner

Search our weather history database for the weather conditions in past years. The results will help you decide how hot, cold, wet, or windy it might be!

Date:

Astronomy

May. 05, 2014 Rise Set
Actual Time 5:37 AM CDT 7:26 PM CDT
Civil Twilight 5:09 AM CDT 7:54 PM CDT
Nautical Twilight 4:35 AM CDT 8:28 PM CDT
Astronomical Twilight 3:59 AM CDT 9:05 PM CDT
Moon 10:55 AM CDT (5/5) 12:10 AM CDT (5/5)
Length of Visible Light 14h 45m
Length of Day
13h 49m
Waxing Crescent, 37% of the Moon is Illuminated
May 5
Waxing Crescent
May 6
First Quarter
May 14
Full
May 21
Last Quarter
May 28
New

Hourly Weather History & Observations

Time (CDT) Temp. Dew Point Humidity Pressure Visibility Wind Dir Wind Speed Gust Speed Precip Events Conditions
12:15 AM 54.7 °F 50.9 °F 87% 29.99 in 10.0 mi Calm Calm - N/A   Clear
12:35 AM 54.9 °F 50.9 °F 86% 29.99 in 10.0 mi Calm Calm - N/A   Clear
12:55 AM 53.6 °F 50.7 °F 90% 29.99 in 10.0 mi Calm Calm - N/A   Clear
1:15 AM - - N/A% 29.98 in 10.0 mi Calm Calm - N/A   Clear
1:35 AM - - N/A% 29.98 in 10.0 mi Calm Calm - N/A   Clear
1:55 AM - - N/A% 29.97 in 10.0 mi Calm Calm - N/A   Clear
2:15 AM - - N/A% 29.97 in 10.0 mi Calm Calm - N/A   Clear
2:35 AM 52.7 °F 50.4 °F 92% 29.97 in 10.0 mi Calm Calm - N/A   Clear
2:55 AM 51.8 °F 50.0 °F 94% 29.98 in 10.0 mi Calm Calm - N/A   Clear
3:15 AM 51.8 °F 50.0 °F 94% 29.98 in 10.0 mi Calm Calm - N/A   Clear
3:35 AM 52.0 °F 50.0 °F 93% 29.99 in 10.0 mi Calm Calm - N/A   Clear
3:55 AM 51.3 °F 49.6 °F 94% 29.99 in 10.0 mi Calm Calm - N/A   Clear
4:15 AM 51.1 °F 49.3 °F 94% 29.99 in 10.0 mi Calm Calm - N/A   Scattered Clouds
4:35 AM 50.9 °F 49.3 °F 94% 29.98 in 10.0 mi Calm Calm - N/A   Mostly Cloudy
4:55 AM 50.4 °F 48.9 °F 95% 29.99 in 10.0 mi Calm Calm - N/A   Scattered Clouds
5:15 AM 50.9 °F 49.3 °F 94% 29.99 in 10.0 mi Calm Calm - N/A   Clear
5:35 AM 50.0 °F 48.9 °F 96% 29.99 in 10.0 mi Calm Calm - N/A   Clear
5:55 AM - - N/A% 30.00 in 10.0 mi Calm Calm - N/A   Clear
6:15 AM 50.7 °F 49.1 °F 94% 30.00 in 10.0 mi Calm Calm - N/A   Clear
6:35 AM - - N/A% 30.00 in 10.0 mi Calm Calm - N/A   Clear
6:55 AM - - N/A% 30.00 in 10.0 mi Calm Calm - N/A   Clear
7:15 AM - - N/A% 30.00 in 10.0 mi Calm Calm - N/A   Clear
7:35 AM - - N/A% 30.00 in 10.0 mi Calm Calm - N/A   Clear
7:55 AM - - N/A% 30.00 in 10.0 mi Calm Calm - N/A   Clear
8:15 AM - - N/A% 30.00 in 10.0 mi East 3.5 mph - N/A   Clear
8:35 AM - - N/A% 30.00 in 10.0 mi East 3.5 mph - N/A   Clear
8:55 AM - - N/A% 30.00 in 10.0 mi SW 6.9 mph - N/A   Clear
9:15 AM - - N/A% 30.00 in 10.0 mi West 5.8 mph - N/A   Clear
9:35 AM - - N/A% 29.99 in 10.0 mi Calm Calm - N/A   Clear
9:55 AM - - N/A% 29.98 in 10.0 mi WSW 4.6 mph - N/A   Clear
10:15 AM - - N/A% 29.98 in 10.0 mi SW 8.1 mph - N/A   Clear
10:35 AM - - N/A% 29.98 in 10.0 mi West 4.6 mph - N/A   Clear
10:55 AM - - N/A% 29.98 in 10.0 mi WNW 8.1 mph 19.6 mph N/A   Clear
11:15 AM - - N/A% 29.97 in 10.0 mi Calm Calm - N/A   Clear
11:35 AM - - N/A% 29.96 in 10.0 mi West 6.9 mph - N/A   Clear
11:55 AM - - N/A% 29.96 in 10.0 mi West 11.5 mph 19.6 mph N/A   Clear
12:15 PM - - N/A% 29.95 in 10.0 mi SW 11.5 mph 24.2 mph N/A   Clear
12:35 PM - - N/A% 29.94 in 10.0 mi WSW 8.1 mph 21.9 mph N/A   Clear
12:50 PM - - N/A% 29.93 in 10.0 mi SW 8.1 mph - N/A   Clear
1:15 PM - - N/A% 29.91 in 10.0 mi Calm Calm - N/A   Unknown
1:35 PM - - N/A% 29.91 in 10.0 mi South 8.1 mph 18.4 mph N/A   Clear
1:55 PM - - N/A% 29.90 in 10.0 mi WSW 9.2 mph - N/A   Clear
2:15 PM - - N/A% 29.89 in 10.0 mi South 11.5 mph - N/A   Clear
2:35 PM - - N/A% 29.88 in 10.0 mi South 10.4 mph 16.1 mph N/A   Clear
2:55 PM - - N/A% 29.87 in 10.0 mi SSW 12.7 mph 18.4 mph N/A   Clear
3:15 PM - - N/A% 29.86 in 10.0 mi South 6.9 mph - N/A   Clear
3:35 PM - - N/A% 29.85 in 10.0 mi South 10.4 mph 18.4 mph N/A   Clear
3:55 PM - - N/A% 29.85 in 10.0 mi SSW 11.5 mph 17.3 mph N/A   Clear
4:15 PM - - N/A% 29.85 in 10.0 mi West 3.5 mph - N/A   Clear
4:35 PM - - N/A% 29.85 in 10.0 mi West 4.6 mph - N/A   Clear
4:55 PM - - N/A% 29.84 in 10.0 mi WSW 6.9 mph - N/A   Clear
5:15 PM - - N/A% 29.84 in 10.0 mi West 5.8 mph - N/A   Clear
5:35 PM - - N/A% 29.84 in 10.0 mi West 3.5 mph 16.1 mph N/A   Clear
5:55 PM - - N/A% 29.84 in 10.0 mi SSW 3.5 mph - N/A   Clear
6:15 PM - - N/A% 29.84 in 10.0 mi Calm Calm - N/A   Clear
6:35 PM - - N/A% 29.84 in 10.0 mi Calm Calm - N/A   Clear
6:55 PM - - N/A% 29.85 in 10.0 mi West 4.6 mph - N/A   Clear
7:15 PM - - N/A% 29.85 in 10.0 mi SW 4.6 mph - N/A   Clear
7:35 PM - - N/A% 29.86 in 10.0 mi SSW 3.5 mph - N/A   Clear
7:55 PM - - N/A% 29.86 in 10.0 mi Calm Calm - N/A   Clear
8:15 PM - - N/A% 29.86 in 10.0 mi Calm Calm - N/A   Clear
8:35 PM - - N/A% 29.87 in 10.0 mi Calm Calm - N/A   Clear
8:55 PM - - N/A% 29.87 in 10.0 mi Calm Calm - N/A   Clear
9:15 PM - - N/A% 29.88 in 10.0 mi Calm Calm - N/A   Clear
9:35 PM - - N/A% 29.89 in 10.0 mi Calm Calm - N/A   Clear
9:55 PM - - N/A% 29.89 in 10.0 mi Calm Calm - N/A   Clear
10:15 PM - - N/A% 29.89 in 10.0 mi Calm Calm - N/A   Clear
10:35 PM - - N/A% 29.89 in 10.0 mi Calm Calm - N/A   Clear
10:55 PM - - N/A% 29.90 in 10.0 mi Calm Calm - N/A   Clear
11:15 PM - - N/A% 29.91 in 10.0 mi Calm Calm - N/A   Clear
11:35 PM - - N/A% 29.91 in 10.0 mi South 3.5 mph - N/A   Clear
11:55 PM - - N/A% 29.92 in 10.0 mi Calm Calm - N/A   Clear